Simultaneous Nadir Overpasses (SNOs) Predictions

Prediction of SNOs between GOES-17 and NPP Satellite Orbit:

Table of predicted SNOs for the next 14.0 days since TLE Epoch: 2/26/2022
Index Date Time (GOES-17) GOES-17 Lat,Lon NPP Lat,Lon Distance(km) Time Diff (sec)
1 02/26/2022 22:46:46 0.04,-137.21 -0.72,-140.59 385.77 80
2 02/27/2022 22:30:42 0.04,-137.20 0.29,-136.06 130.50 80
3 03/01/2022 10:52:30 -0.03,-137.20 0.87,-141.33 470.72 80
4 03/02/2022 10:31:06 -0.02,-137.20 -0.14,-136.80 45.52 80
5 03/04/2022 22:34:17 0.02,-137.20 -0.04,-137.58 43.14 80
6 03/05/2022 22:18:13 0.02,-137.19 0.97,-133.05 472.79 80
7 03/07/2022 10:40:00 -0.02,-137.18 0.25,-138.31 129.26 80
8 03/08/2022 10:18:36 -0.02,-137.17 -0.76,-133.78 386.19 80
9 03/09/2022 22:40:32 0.02,-137.16 -0.43,-139.08 219.56 80
10 03/10/2022 22:24:28 0.01,-137.15 0.59,-134.55 295.56 80
